Regional Weather Roundup
Issued by NWS Albany, NY

Home | Current Version | Previous Version | Text Only | Print | Product List | Glossary On
Versions: 1 2 3 4 5 6 7 8 9 10 11 12 13 14 15 16 17 18 19 20 21 22 23 24 25 26 27 28 29 30 31 32 33 34 35 36 37 38 39 40 41 42 43 44 45 46 47 48 49 50
000
ASUS41 KALY 192010
RWRALY

NEW YORK STATE HOURLY WEATHER ROUNDUP
NATIONAL WEATHER SERVICE ALBANY NY
400 PM EDT FRI SEP 19 2014

NOTE: "FAIR" INDICATES FEW OR NO CLOUDS BELOW 12,000 FEET WITH NO
SIGNIFICANT WEATHER AND/OR NO OBSTRUCTIONS TO VISIBILITY.

NYZ032-033-038>043-046>054-057>066-NYZ062>081-192100-
EAST


CITY           SKY/WX    TMP DP  RH WIND       PRES   REMARKS
ALBANY         MOSUNNY   60  36  40 S6        30.34F
GLENS FALLS    SUNNY     58  35  42 CALM      30.34F
POUGHKEEPSIE   SUNNY     64  40  41 CALM      30.33F
NEWBURGH       MOSUNNY   63  45  51 VRB6      30.35F
MONTGOMERY     SUNNY     64  43  46 CALM      30.33F
WHITE PLAINS   SUNNY     61  42  49 SE7       30.35S
ISLIP          MOSUNNY   64  43  46 NE10      30.35R
NEW YORK CITY  MOSUNNY   64  44  48 NE12      30.35S
CENTRAL PARK   SUNNY     65  44  46 NE8       30.37S
$$

NYZ005>009-017-018-044>046-055-056-192100-
CENTRAL


CITY           SKY/WX    TMP DP  RH WIND       PRES   REMARKS
FULTON         SUNNY     58  38  47 VRB5      30.29F
SYRACUSE       MOSUNNY   62  39  42 E8        30.29F
ROME           SUNNY     59  39  47 SE5       30.31F
ELMIRA         SUNNY     64  44  48 SE9       30.26F
BINGHAMTON     SUNNY     60  38  43 CALM      30.30F
MONTICELLO     MOSUNNY   61  45  55 S10       30.34S
$$

NYZ026>034-041>043-192100-
NORTH


CITY           SKY/WX    TMP DP  RH WIND       PRES   REMARKS
WATERTOWN      SUNNY     59  36  42 VRB6      30.28F
FORT DRUM      NOT AVBL
MASSENA        SUNNY     59  33  37 VRB3      30.30F
SARANAC LAKE   SUNNY     55  30  38 VRB3      30.26F
PLATTSBURGH    SUNNY     54  32  43 SE8       30.33F
$$

NYZ001>004-010>016-019>021-192100-
WEST


CITY           SKY/WX    TMP DP  RH WIND       PRES   REMARKS
NIAGARA FALLS  PTSUNNY   64  42  44 E7        30.21F
BUFFALO        PTSUNNY   64  39  39 CALM      30.22F
DUNKIRK        SUNNY     62  47  57 N10       30.21F
JAMESTOWN      SUNNY     63  46  55 S10       30.21F
WELLSVILLE     SUNNY     63  43  48 S9        30.25F
ROCHESTER      MOSUNNY   62  41  46 SE12      30.26F
PENN YAN       SUNNY     61  40  45 E6        30.27F
$$

             KEY
       WCI = WIND CHILL INDEX
       VSB = VISIBILITY
       HX  = HEAT INDEX
$$


USA.gov is the U.S. government's official web portal to all federal, state and local government web resources and services.